Regional Weather Roundup
Issued by NWS

Home | Current Version | Previous Version | Graphics & Text | Print | Product List | Glossary On
Versions: 1 2 3 4 5 6 7 8 9 10 11 12 13 14 15 16 17 18 19 20 21 22 23 24 25 26 27 28 29 30 31 32 33 34 35 36 37 38 39 40 41 42 43 44 45 46 47 48 49 50
977
ASUS43 KBIS 240010
RWRND

NORTH DAKOTA REGIONAL WEATHER ROUNDUP
NATIONAL WEATHER SERVICE BISMARCK ND
600 PM CST FRI FEB 23 2018

NOTE: "FAIR" INDICATES FEW OR NO CLOUDS BELOW 12,000 FEET WITH NO
SIGNIFICANT WEATHER AND/OR OBSTRUCTIONS TO VISIBILITY.


NDZ001>003-009>011-017-240100-
NORTHWEST NORTH DAKOTA

CITY           SKY/WX    TMP DP  RH WIND       PRES   REMARKS
WILLISTON      CLEAR     12   2  64 S10       30.07F WCI  -1
6HR MIN TEMP:   2; 6HR MAX TEMP:  13;

MINOT          CLEAR     15   6  67 S9        30.12S WCI   3
MINOT AFB      CLEAR     13   5  71 SW6       30.11S WCI   3
$$

NDZ018>021-031>035-040>046-240100-
SOUTHWEST NORTH DAKOTA

CITY           SKY/WX    TMP DP  RH WIND       PRES   REMARKS
BISMARCK       CLEAR     17   7  64 W6        30.19S WCI   9
6HR MIN TEMP:  14; 6HR MAX TEMP:  20;

DICKINSON      CLEAR     13   2  61 S14       30.05S WCI  -2
GARRISON         N/A      9   2  73 S5        30.12F WCI   1
6HR MIN TEMP:   8; 6HR MAX TEMP:  13;

HETTINGER ARPT CLEAR      8  -1  66 S5        30.10F WCI   0
$$

NDZ004>008-012>016-024-026-027-054-240100-
NORTHEAST NORTH DAKOTA

CITY           SKY/WX    TMP DP  RH WIND       PRES   REMARKS
GRAND FORKS    FAIR      13   6  74 W10       30.21R WCI   0
GRND FRKS AFB  FAIR      13   5  69 NW7       30.21R WCI   3
DEVILS LAKE    FAIR      10   5  80 SW13      30.15F WCI  -5
$$

NDZ022-023-025-028>030-036>039-047>053-240100-
SOUTHEAST NORTH DAKOTA

CITY           SKY/WX    TMP DP  RH WIND       PRES   REMARKS
FARGO          FAIR      10   4  76 SW8       30.26R WCI  -2
6HR MIN TEMP:  10; 6HR MAX TEMP:  17;

JAMESTOWN      CLEAR     13   7  77 SW7       30.19R WCI   3
$$





USA.gov is the U.S. government's official web portal to all federal, state and local government web resources and services.